This is the latest recevied weather packets stored in our database for station/object KC4GS-13. If no packets are shown the sender has not sent any weather packets the latest 10 day(s).
| Time | Temp. | Humidity | Pressure | Rain* | Wind** | Luminosity | Snow |
|---|---|---|---|---|---|---|---|
| 1777476936 | 22.78° C | 84% | 1014.7 hPa | 0 mm | - | 224 W/m² | - |
| 1777476635 | 22.22° C | 88% | 1014.5 hPa | 0 mm | - | 387 W/m² | - |
| 1777476331 | 21.11° C | 91% | 1014.7 hPa | 0 mm | - | 683 W/m² | - |
| 1777476027 | 21.11° C | 94% | 1014.5 hPa | 0 mm | - | 292 W/m² | - |
| 1777475723 | 20.56° C | 95% | 1014.9 hPa | 0 mm | - | 356 W/m² | - |
| 1777475420 | 20.56° C | 96% | 1014.8 hPa | 0 mm | - | 236 W/m² | - |
| 1777475115 | 20° C | 97% | 1014.8 hPa | 0 mm | - | 595 W/m² | - |
| 1777474812 | 20° C | 98% | 1014.9 hPa | 0 mm | - | 684 W/m² | - |
| 1777474507 | 19.44° C | 98% | 1014.7 hPa | 0 mm | - | 642 W/m² | - |
| 1777474204 | 20° C | 98% | 1014.7 hPa | 0 mm | - | 521 W/m² | - |
| 1777473902 | 19.44° C | 99% | 1014.9 hPa | 0 mm | - | 154 W/m² | - |
| 1777473599 | 19.44° C | 99% | 1015 hPa | 0 mm | - | 146 W/m² | - |
| 1777473295 | 19.44° C | 99% | 1015.1 hPa | 0 mm | - | 218 W/m² | - |
| 1777472990 | 19.44° C | 99% | 1015 hPa | 0 mm | - | 95 W/m² | - |
| 1777472687 | 19.44° C | 99% | 1014.9 hPa | 0 mm | - | 101 W/m² | - |
| 1777472383 | 18.89° C | 99% | 1014.8 hPa | 0 mm | - | 441 W/m² | - |
| 1777472082 | 18.89° C | 99% | 1014.9 hPa | 0 mm | - | 99 W/m² | - |
| 1777471777 | 18.89° C | 99% | 1015 hPa | 0 mm | - | 126 W/m² | - |
| 1777471473 | 18.89° C | 99% | 1015.1 hPa | 0 mm | - | 110 W/m² | - |
| 1777471170 | 18.33° C | 99% | 1015.2 hPa | 0 mm | - | 151 W/m² | - |
| 1777470867 | 18.33° C | 99% | 1015.3 hPa | 0 mm | - | 146 W/m² | - |
| 1777470564 | 17.78° C | 99% | 1015.2 hPa | 0 mm | - | 101 W/m² | - |
| 1777470260 | 17.78° C | 99% | 1014.9 hPa | 0 mm | - | 110 W/m² | - |
| 1777469956 | 17.78° C | 99% | 1015.2 hPa | 0 mm | - | 109 W/m² | - |
| 1777469652 | 17.78° C | 99% | 1015.4 hPa | 0 mm | - | 126 W/m² | - |
* Rain latest hour (hover to see other rain measurements)
** Current wind speed in m/s (hover to see current wind gust speed)